Погода Тегюльтя-Терде

Погода Тегюльтя-Терде : погода сейчас, прогноз погоды и архив. Всё, что Вы хотите узнать о погоде Тегюльтя-Терде!

Поиск расширенной информации на нашем сайте:

Другие новости

Новости СМИ2

Главная страница сайта

Новости сайта

02.10.2013

Напоминаем, что на нашем новом сайте вы можете получить высокодетализированные прогнозы погоды по пунктам России, СНГ и мира (включающие важные для авиации метеовеличины, такие как направление и скорость ветра, видимость, явления погоды, количество и форма облачности, нижняя и верхняя граница облачности), а также ознакомиться с разнообразными материалами по авиационной метеорологии и подборкой полезных ссылок на эту тему.

Сайт Метеоцентр.Азия посвящён разработке технологий оптимизации авиаметеорологического обслуживания, включая проектирование и перспективное создание нескольких автоматизированных авиаметеорологических систем:
- система выпуска высокодетальных прогностических карт явлений погоды для нижнего воздушного пространства по России и ближнему зарубежью;
- система верификации прогнозов TAF (выпускаемых синоптиками официальных АМСГ РФ и ближнего зарубежья) и AUTOTAF (выпускаемых сайтом Метеоцентр.Азия) - выявление ошибок, онлайн-сопоставление с фактической погодой METAR, автоматическое внесение коррективов в прогнозы при резком отклонении фактической погоды от прогноза, подсчёт оправдываемости прогнозов по элементам и в целом;
- система обработки, анализа и отображения авиаметеорологической информации для применения провайдерами метеорологической информации.

Рекомендуем: предлагаются помещения сдам офис Бизнес центр Варшавка Sky у метро Чертановская

Погода Тегюльтя-Терде - сегодня

Время (UTC), дата Ветер
(°,м/с) 
Видим.   Явления Облачность Т
(°С)
Тd
(°С)
f(%) Тe
(°С)
Pmin
(гПа)
dP
(гПа)
Po
(мм)
O2
(г/м3)
Тmin Tmax R s Состояние
почвы
18 19.06.17 270 (З) 20000 м    10/3 600 м верхняя 
[Sc|Cs]
+9.5 +8.5 93 +11  1010.9  0.8  743  288           
21 19.06.17 тихо ()   20000 м    8/3 600 м верхняя 
[Sc|Cs]
+11.6 +9.6 88 +12  1011.4  0.6  743  285           
00 20.06.17 230 (ЮЗ) 20000 м    10/3 600 м верхняя 
[Sc|Cs]
+20.4 +12 59 +25  1010.7  743  276  +9.2        сухая 
03 20.06.17 270 (З) 20000 м    10/3 600 м верхняя 
[Sc|Cs]
+24.3 +9.2 38 +25  1009.9  -0.6  743  273           
06 20.06.17 270 (З) 20000 м    10/6 600 м средняя, верхняя 
[Cu Sc|Ac cast|Ci fib]
+26.5 +11.9 40 +31  1007.7  -2  741  270           
09 20.06.17 310 (СЗ) 20000 м    10/6 600 м средняя, верхняя 
[Sc|Ac cast|Ci fib]
+25.1 +13.3 48 +31  1006.3  -1.4  740  271           
12 20.06.17 300 (СЗ) 20000 м    8/4 600 м средняя 
[Sc|Ac cast]
+21.5 +17.5 78 +35  1006.4  -0.2  740  272    +27.1       
15 20.06.17 390 () 20000 м    8/4 600 м средняя 
[Sc|Ac trans]
+17.4 +14.3 82 +26  1006.4  -0.2  740  277           
18 20.06.17 270 (З) 20000 м    10/4 600 м средняя 
[Sc|Ac und]
+17.1 +14.2 83 +26  1005.9  -0.5  740  277           
21 20.06.17 270 (З) 20000 м    8/6 600 м средняя 
[Sc|Ac trans]
+17.7 +13.3 75 +25  1004.5  -1.4  738  277           
00 21.06.17 270 (З) 3{10}  20000 м    8/8 600 м 
[Sc]
+22.7 +13.2 55 +29  1004.3  0.2  739  272  +17        сухая 
03 21.06.17 280 (З) 4{12}  20000 м    6/3 1000 м верхняя 
[Cu hum|Ci fib]
+24.5 +6.9 32 +25  1005.1  0.8  739  272           
06 21.06.17 340 (С) 4{10}  20000 м    8/0 верхняя 
[Ci fib]
+25.6 +3.6 24 +26  1004.7  -0.3  739  272           
09 21.06.17 340 (С) 20000 м    3/0 верхняя 
[Ci fib]
+26 +4.4 25 +26  1004.9  0.2  739  271           
12 21.06.17 тихо ()   20000 м    6/0 средняя, верхняя 
[Ac trans|Ci fib]
+19.7 +13 65 +25  1005.4  0.1  739  275    +26.4       
15 21.06.17 тихо ()   20000 м    10/0 средняя 
[Ac As]
+11.2 +9 86 +11  1006.9  740  285           
18 21.06.17 тихо ()   20000 м    10/3 600 м средняя, верхняя 
[Sc|Ac trans|Cc]
+7.2 +6.3 94 +7  1007.5  0.3  740  290           
21 21.06.17 тихо ()   20000 м    10/4 600 м средняя, верхняя 
[Sc|Ac trans|Ci fib]
+9.7 +6.9 83 +10  1007.5  0.1  740  287           
00 22.06.17 160 (Ю) 20000 м    10/0 верхняя 
[Ci fib]
+18.8 +11.5 63 +23  1006.7  -0.1  740  277  +7.1        сухая 
03 22.06.17 310 (СЗ) 20000 м    10/0 средняя, верхняя 
[Ac trans|Ci fib]
+25.9 +12.7 44 +31  1004.4  -1.8  739  269           
06 22.06.17 100 (В) 20000 м    8/4 600 м кучево-дожд., средняя, верхняя 
[Cb cap|Ac trans|Ci fib]
+26 +16.9 57 +39  1004  -0.4  739  268           
09 22.06.17 270 (З) 20000 м    10/0 средняя, верхняя 
[Ac trans|Cs]
+30 +15 40 +39  1002.3  -1.4  737  265           
12 22.06.17 270 (З) 3{10}  20000 м  в посл. час гроза{ливн. осадки}  10/10 600 м кучево-дожд. 
[Cb cap]
+20.1 +15.9 77 +31  1003.8  0.8  738  274    +30.3     
15 22.06.17 тихо ()   20000 м    6/3 600 м средняя 
[Sc|Ac trans]
+14.9 +14.4 97 +23  1004.3  0.1  738  279           
18 22.06.17 тихо ()   0200 м  туман  ?/?  
[]
+13.2 +12.8 97 +19  1004.4  738  281           
Время (UTC), дата Ветер
(°,м/с) 
Видим.   Явления Облачность Т
(°С)
Тd
(°С)
f(%) Тe
(°С)
Pmin
(гПа)
dP
(гПа)
Po
(мм)
O2
(г/м3)
Тmin Tmax R s Состояние
почвы

Для получения пояснительной информации подведите курсор к названию столбца.

ПОГОДА Тегюльтя-Терде - архив

Всё, что Вы хотите узнать о погоде Тегюльтя-Терде - удобно и подробно!

Выберите нужную дату (начиная с 1 января 2015* года) и нажмите кнопку "Найти".
Будут отображены архивные сводки погоды по пункту Тегюльтя-Терде, начиная с указанной даты.


Отображать данные в формате CSV (для использования в таблицах Excel)


Внимание! Наш архив погоды предназначен исключительно для личного некоммерческого использования в познавательных целях. Если Вам необходимы официальные справки о состоянии погоды (для производственных, юридических, коммерческих и т.п. целей), обращайтесь в органы Росгидромета.

*Примечание: данная дата относится к архиву по метеостанциям СССР (Россия, СНГ, Балтия).
Архив по метеостанциям Зарубежной Европы и Азии (кроме Китая) хранится 10 дней, по другим регионам земного шара (Китай, Африка, Америка, Австралия, Океания) - 1 день.

Тегюльтя-Терде - район местоположения метеостанции


Название, широта, долгота, высота метеостанции:
Тегюльтя-Терде 60.2°ш. 130.2°д. 171 м над ур. моря [Российская Федерация]

Дополнительная информация

В oтличие oт бoльшинства пoгoдных сайтoв мы публикуем пoдрoбную метеoинфoрмацию в детальнoм прoфессиoнальнoм фoрмате.

Характеристики температуры и влажнoсти вoздуха измеряются на высoте 2 м в тени вдали oт зданий и деревьев.
Скoрoсть ветра измеряется на высoте 10 м (на урoвне рoста челoвека скoрoсть ветра ниже в 1.5-2 раза). Если метеoстанция нахoдится в гoрoде или в лесу, тo скoрoсть ветра занижена на 2-4 м/с пo сравнению с oткрытым местoм. Скoрoсть ветра над акватoриями крупных рек и oзёр, а также на вершинах хoлмoв на 2-5 м/с выше, чем в oбычных услoвиях.
Атмoсфернoе давление в разных тoчках местнoсти мoжет значительнo oтличаться oт давления на метеoстанции, в зависимoсти oт услoвий рельефа (при пoдъёме на 10 м давление пoнижается примернo на 1 мм рт.ст.).